DW5657 Weather Reports


Display with metric or nautical units.
time (UTC)temp
F
wind
direction
speed
MPH
gust
MPH
rain 1hr
in
rain 24hr
in
rain mn
in
humidity
%
barometer
mb
20260503235704 60 70 0.0 5.0 0.00 0.00 0.00 43 1012.1
20260503235205 60 89 2.0 9.0 0.00 0.00 0.00 44 1012.1
20260503234704 60 92 0.0 2.0 0.00 0.00 0.00 43 1012.1
20260503234204 60 92 0.0 8.0 0.00 0.00 0.00 43 1012.1
20260503233703 60 86 1.0 8.0 0.00 0.00 0.00 42 1012.1
20260503232704 60 69 1.0 3.0 0.00 0.00 0.00 42 1012.4
20260503231704 60 76 1.0 5.0 0.00 0.00 0.00 43 1012.6
20260503231204 60 83 0.0 3.0 0.00 0.00 0.00 42 1012.8
20260503230704 60 84 0.0 3.0 0.00 0.00 0.00 42 1012.9
20260503230204 61 79 0.0 2.0 0.00 0.00 0.00 42 1013.0
20260503225705 61 90 1.0 5.0 0.00 0.00 0.00 42 1013.1
20260503225204 61 86 2.0 5.0 0.00 0.00 0.00 41 1013.2
20260503224704 61 76 1.0 3.0 0.00 0.00 0.00 41 1013.4
20260503223704 61 66 1.0 6.0 0.00 0.00 0.00 40 1013.5
20260503223204 61 65 2.0 5.0 0.00 0.00 0.00 39 1013.6
20260503222704 62 80 4.0 9.0 0.00 0.00 0.00 39 1013.6
20260503222204 62 59 5.0 13.0 0.00 0.00 0.00 38 1013.7
20260503221705 63 50 3.0 7.0 0.00 0.00 0.00 39 1013.7
20260503221204 63 48 2.0 7.0 0.00 0.00 0.00 40 1013.7
20260503220704 63 57 2.0 9.0 0.00 0.00 0.00 40 1013.8
20260503220205 62 55 1.0 5.0 0.00 0.00 0.00 41 1013.9
20260503215704 62 64 1.0 7.0 0.00 0.00 0.00 40 1013.9
20260503215204 62 67 2.0 8.0 0.00 0.00 0.00 41 1013.9
20260503214703 61 90 3.0 12.0 0.00 0.00 0.00 40 1013.9
20260503213704 60 82 2.0 7.0 0.00 0.00 0.00 41 1014.0
20260503213205 60 72 1.0 5.0 0.00 0.00 0.00 43 1013.8
20260503212704 60 83 1.0 6.0 0.00 0.00 0.00 41 1013.9
20260503212205 60 64 1.0 7.0 0.00 0.00 0.00 41 1014.0
20260503211704 60 71 2.0 8.0 0.00 0.00 0.00 40 1014.3
20260503211204 60 76 3.0 8.0 0.00 0.00 0.00 39 1014.5
20260503210704 60 86 2.0 7.0 0.00 0.00 0.00 41 1014.5
20260503210204 60 84 2.0 7.0 0.00 0.00 0.00 41 1014.8
20260503205704 60 81 0.0 6.0 0.00 0.00 0.00 40 1014.7
20260503205204 61 74 3.0 9.0 0.00 0.00 0.00 39 1015.0
20260503204704 61 69 2.0 7.0 0.00 0.00 0.00 39 1014.9
20260503204204 61 48 1.0 5.0 0.00 0.00 0.00 40 1014.9
20260503203204 61 74 4.0 13.0 0.00 0.00 0.00 39 1014.7
20260503202704 61 78 3.0 13.0 0.00 0.00 0.00 40 1014.8
20260503202206 61 66 2.0 8.0 0.00 0.00 0.00 40 1014.8
20260503201705 61 77 5.0 14.0 0.00 0.00 0.00 39 1014.8
20260503200704 61 62 2.0 6.0 0.00 0.00 0.00 38 1014.8
20260503200204 61 66 5.0 13.0 0.00 0.00 0.00 38 1014.8
20260503195705 62 74 2.0 6.0 0.00 0.00 0.00 40 1014.9
20260503195204 62 73 4.0 7.0 0.00 0.00 0.00 38 1015.1
20260503194704 62 66 2.0 10.0 0.00 0.00 0.00 39 1015.2
20260503193705 62 28 2.0 7.0 0.00 0.00 0.00 38 1015.4
20260503193204 62 68 4.0 10.0 0.00 0.00 0.00 39 1015.6
20260503192705 62 71 3.0 10.0 0.00 0.00 0.00 39 1015.7
20260503192203 61 78 5.0 9.0 0.00 0.00 0.00 41 1015.7
20260503191703 61 79 3.0 7.0 0.00 0.00 0.00 40 1015.8
20260503190203 61 80 6.0 13.0 0.00 0.00 0.00 40 1016.0
20260503185704 61 74 2.0 8.0 0.00 0.00 0.00 37 1016.1
20260503185203 60 73 6.0 12.0 0.00 0.00 0.00 40 1016.3
20260503184703 60 76 1.0 8.0 0.00 0.00 0.00 40 1016.4
20260503184203 60 65 3.0 8.0 0.00 0.00 0.00 39 1016.5
20260503183704 60 56 4.0 7.0 0.00 0.00 0.00 39 1016.6
20260503183203 60 65 4.0 10.0 0.00 0.00 0.00 40 1016.7
20260503182704 60 78 3.0 10.0 0.00 0.00 0.00 39 1016.6
20260503182203 60 61 4.0 9.0 0.00 0.00 0.00 39 1016.7
20260503181702 61 65 6.0 12.0 0.00 0.00 0.00 38 1016.7
20260503181203 61 58 3.0 9.0 0.00 0.00 0.00 38 1016.9
20260503180702 61 50 4.0 15.0 0.00 0.00 0.00 37 1016.9
20260503180204 61 66 2.0 15.0 0.00 0.00 0.00 41 1016.9
20260503175702 61 54 4.0 8.0 0.00 0.00 0.00 38 1017.0
20260503175204 61 69 4.0 8.0 0.00 0.00 0.00 38 1016.9
20260503174203 61 60 2.0 10.0 0.00 0.00 0.00 39 1017.1
20260503173703 61 69 2.0 8.0 0.00 0.00 0.00 37 1017.3
20260503173203 61 54 3.0 8.0 0.00 0.00 0.00 38 1017.3
20260503172703 61 58 5.0 9.0 0.00 0.00 0.00 37 1017.3
20260503171703 61 65 3.0 7.0 0.00 0.00 0.00 39 1017.7
20260503171203 60 55 3.0 10.0 0.00 0.00 0.00 41 1017.8
20260503170703 60 70 3.0 10.0 0.00 0.00 0.00 40 1017.9
20260503170203 60 75 4.0 12.0 0.00 0.00 0.00 39 1017.8
20260503160204 58 65 4.0 8.0 0.00 0.00 0.00 43 1018.7
20260503150702 55 110 5.0 8.0 0.00 0.00 0.00 47 1019.1
20260503140203 51 88 3.0 9.0 0.00 0.00 0.00 55 1019.1
20260503130703 46 113 2.0 8.0 0.00 0.00 0.00 64 1019.3
20260503130202 45 120 2.0 12.0 0.00 0.00 0.00 64 1019.2
20260503110702 39 149 1.0 3.0 0.00 0.00 0.00 77 1018.5
20260503100202 38 157 0.0 3.0 0.00 0.00 0.00 78 1017.9
20260503090204 37 158 0.0 0.0 0.00 0.00 0.00 81 1018.0
20260503081203 36 351 0.0 0.0 0.00 0.00 0.00 82 1017.9
20260503080703 36 351 0.0 0.0 0.00 0.00 0.00 82 1017.9
20260503080204 36 351 0.0 0.0 0.00 0.00 0.00 81 1017.9
20260503072703 37 351 0.0 0.0 0.00 0.00 0.00 79 1017.8
20260503072203 37 351 0.0 0.0 0.00 0.00 0.00 79 1017.8
20260503070203 38 351 0.0 0.0 0.00 0.00 0.00 77 1017.9
20260503060204 39 348 0.0 0.0 0.00 0.00 0.00 73 1018.1
20260503053702 39 346 0.0 0.0 0.00 0.00 0.00 71 1018.2
20260503053203 39 346 0.0 0.0 0.00 0.00 0.00 71 1018.2
20260503052703 39 346 0.0 0.0 0.00 0.00 0.00 71 1018.2
20260503052203 39 346 0.0 0.0 0.00 0.00 0.00 71 1018.3
20260503051704 40 345 0.0 0.0 0.00 0.00 0.00 71 1018.2
20260503051203 40 345 0.0 0.0 0.00 0.00 0.00 70 1018.2
20260503050703 40 344 0.0 0.0 0.00 0.00 0.00 70 1018.2
20260503050203 40 344 0.0 0.0 0.00 0.00 0.00 70 1018.2
20260503045203 40 344 0.0 0.0 0.00 0.00 0.00 71 1018.2
20260503044204 40 342 0.0 0.0 0.00 0.00 0.00 71 1018.2
20260503043704 40 341 0.0 0.0 0.00 0.00 0.00 70 1018.3
20260503043203 40 340 0.0 0.0 0.00 0.00 0.00 71 1018.3
20260503042703 41 338 0.0 0.0 0.00 0.00 0.00 71 1018.3
20260503042204 41 335 0.0 0.0 0.00 0.00 0.00 71 1018.2
20260503041703 41 335 0.0 0.0 0.00 0.00 0.00 70 1018.2
20260503040704 41 330 0.0 0.0 0.00 0.00 0.00 70 1018.2
20260503040203 41 328 0.0 0.0 0.00 0.00 0.00 70 1018.2
20260503035703 41 325 0.0 0.0 0.00 0.00 0.00 70 1018.3
20260503035203 41 325 0.0 0.0 0.00 0.00 0.00 69 1018.2
20260503034703 41 325 0.0 0.0 0.00 0.00 0.00 69 1018.3
20260503034202 41 323 0.0 0.0 0.00 0.00 0.00 69 1018.3
20260503033704 41 324 0.0 0.0 0.00 0.00 0.00 68 1018.2
20260503033203 41 323 0.0 0.0 0.00 0.00 0.00 68 1018.2
20260503032704 41 322 0.0 0.0 0.00 0.00 0.00 68 1018.2
20260503032203 42 322 0.0 0.0 0.00 0.00 0.00 68 1018.2
20260503031704 42 324 0.0 0.0 0.00 0.00 0.00 68 1018.2
20260503031203 42 323 0.0 0.0 0.00 0.00 0.00 67 1018.2
20260503030703 42 324 0.0 0.0 0.00 0.00 0.00 67 1018.2
20260503030203 42 315 0.0 0.0 0.00 0.00 0.00 67 1018.3
20260503025203 42 312 0.0 0.0 0.00 0.00 0.00 67 1018.3
20260503024702 43 304 0.0 0.0 0.00 0.00 0.00 66 1018.2
20260503024203 43 294 0.0 0.0 0.00 0.00 0.00 66 1018.3
20260503022703 43 280 0.0 0.0 0.00 0.00 0.00 64 1018.3
20260503021703 44 282 0.0 0.0 0.00 0.00 0.00 63 1018.2
20260503020704 44 237 0.0 0.0 0.00 0.00 0.00 61 1018.1
20260503020203 45 227 0.0 0.0 0.00 0.00 0.00 60 1018.1
20260503015702 45 228 0.0 0.0 0.00 0.00 0.00 60 1018.1
20260503015203 45 223 0.0 0.0 0.00 0.00 0.00 59 1018.0
20260503014703 45 220 0.0 0.0 0.00 0.00 0.00 59 1017.9
20260503013704 46 217 0.0 0.0 0.00 0.00 0.00 58 1017.9
20260503013203 46 210 0.0 0.0 0.00 0.00 0.00 58 1017.8
20260503012703 46 205 0.0 0.0 0.00 0.00 0.00 57 1017.8
20260503012204 46 207 0.0 0.0 0.00 0.00 0.00 56 1017.7
20260503011704 46 208 0.0 0.0 0.00 0.00 0.00 56 1017.6
20260503011204 47 200 0.0 0.0 0.00 0.00 0.00 56 1017.6
20260503010703 47 195 0.0 1.0 0.00 0.00 0.00 55 1017.5
20260503010203 47 195 0.0 0.0 0.00 0.00 0.00 54 1017.5
20260503005203 47 180 0.0 1.0 0.00 0.00 0.00 54 1017.4
20260503004704 48 0 1.0 3.0 0.00 0.00 0.00 54 1017.4
20260503004203 48 12 0.0 2.0 0.00 0.00 0.00 53 1017.3
20260503003702 48 184 1.0 3.0 0.00 0.00 0.00 53 1017.4
20260503003205 48 179 0.0 0.0 0.00 0.00 0.00 52 1017.3
20260503002703 48 180 0.0 5.0 0.00 0.00 0.00 52 1017.3
20260503001702 49 170 1.0 5.0 0.00 0.00 0.00 52 1017.2